Regional Weather Roundup
Issued by NWS Green Bay, WI

Home | Current Version | Previous Version | Graphics & Text | Print | Product List | Glossary On
Versions: 1 2 3 4 5 6 7 8 9 10 11 12 13 14 15 16 17 18 19 20 21 22 23 24 25 26 27 28 29 30 31 32 33 34 35 36 37 38 39 40 41 42 43 44 45 46 47 48 49 50
000
ASUS43 KGRB 231259
RWRGRB

NORTH-CENTRAL AND NORTHEAST WISCONSIN REGIONAL WEATHER ROUNDUP
NATIONAL WEATHER SERVICE GREEN BAY WI
800 AM CDT TUE SEP 23 2014

WIZ005-009-010>012-018-019-231400-
NORTH CENTRAL WISCONSIN

CITY           SKY/WX    TMP DP  RH WIND       PRES   REMARKS
IRONWOOD       SUNNY     46  45  93 CALM      30.21S
MANITOWISH WTR NOT AVBL
ARBOR VITAE    NOT AVBL
EAGLE RIVER    NOT AVBL
LAND O LAKES   NOT AVBL
RHINELANDER    SUNNY     49  49 100 W3        30.27S
PHILLIPS       NOT AVBL
ANTIGO         NOT AVBL
TOMAHAWK       NOT AVBL
MERRILL        NOT AVBL
$$

WIZ013-073-231400-
NORTHEAST WISCONSIN

CITY           SKY/WX    TMP DP  RH WIND       PRES   REMARKS
IRON MOUNTAIN  SUNNY     54  49  83 NW6       30.23R
MARINETTE      SUNNY     52  46  82 W3        30.24R
$$

WIZ017-030-035>037-045-231400-
CENTRAL WISCONSIN

CITY           SKY/WX    TMP DP  RH WIND       PRES   REMARKS
MEDFORD        NOT AVBL
WAUSAU         SUNNY     47  47 100 CALM      30.26S
MOSINEE        SUNNY     45  45 100 CALM      30.28S
MARSHFIELD     SUNNY     49  48  97 CALM      30.27R FOG
WISC RAPIDS    SUNNY     47  46  97 CALM      30.29R
STEVENS POINT  NOT AVBL
WAUPACA        NOT AVBL
SHAWANO        NOT AVBL
CLINTONVILLE   NOT AVBL
$$

WIZ038-039-048-051-231400-
FOX VALLEY

CITY           SKY/WX    TMP DP  RH WIND       PRES   REMARKS
NWS GREEN BAY  SUNNY     52  51  97 SW5       30.28R
APPLETON       SUNNY     52  48  87 VRB3      30.29R
OSHKOSH        SUNNY     51  49  92 CALM      30.28R
FOND DU LAC    SUNNY     51  49  92 S3        30.29R
$$

WIZ022-050-052-231400-
EAST CENTRAL WISCONSIN

CITY           SKY/WX    TMP DP  RH WIND       PRES   REMARKS
STURGEON BAY   SUNNY     55  50  82 SW7       30.26R
MANITOWOC      NOT AVBL
SHEBOYGAN      SUNNY     50  48  93 CALM      30.29R
$$

LMZ563-521-522-541>543-231400-
LAKESHORE

STATION/POSITION TIME  TEMP    WIND        PRES    VSBY  WAVE
                       AIR SEA DIR/SP/G                  HT/PER
                 (UTC) (F)     (DEG/KT/KT) (MB)    (MI)  (FT/S)
SHEBOYGAN LKSHOR 1200   52 54  260/  7/  8 1025.6R
KEWAUNEE LKSHORE 1200   52     290/  6/  8 1023.5R
ALGOMA MARINA    1200          310/  5/  8   N/A
TWO RIVERS CG    1200   50                 1024.6      6   0
NORTHPORT PIER   1200   59     270/  6/ 10 1023.4R
N MID LAKE BUOY  1200   57 57  250/ 12/ 14 1023.1R         2/ 4
S GREEN BAY BUOY 1200   58     VRB 12/ 14  1025.1R
STURGEON BAY CG  1200   52 52  300/  6       N/A       6   1
CHAMBERS ISLAND  1200   58     190/  5/  9 1024.0R
MENOMINEE LKSHOR 1200   52     230/  5/  7 1024.4R
$$


USA.gov is the U.S. government's official web portal to all federal, state and local government web resources and services.